Find SBSS 1

NORAD ID: 37168 Int'l Des: 2010-048 Owner: AFSMC Country: US Constellation: satellogic operational
LEOCIRCULARRETROGRADESSO

实时位置

正在加载3D地球...

关于 SBSS 1

正在加载描述...

即将过境

Passes for default location (London). Set your location on the main map for personalized predictions.

高度历史

Loading altitude history...

两行轨道根数

1 37168U 10048A 26106.89500697 .00003249 00000-0 15823-3 0 9997
2 37168 97.7417 351.1535 0083176 55.6646 9.2470 15.16087421843183
Epoch: Apr 16, 2026 • Age: 15 hours

当前状态

高度 587.8 km
速度 7.53 km/s
星下点 -38.43°S, 133.81°E
发射日期 Sep 26, 2010
运行时间 15.5 years
类型 other

技术详情

分类 Payload
质量 1031.00 kg
干质量 900.00 kg
总质量 1031.00 kg
长度 3.00 m
直径 2.00 m
跨度 10.00 m
形状 Box + 2 Pan
制造商 BALL/BOSB
平台类型 BCP-2000
阶段状态 In Orbit
所有者/国家 AFSMC/US

Most Searched